Theta_e
294 294 294 295 295 296 296 296 296 296 296 296 296 296 296 296 297 298 299 300 300 301 301 300 300 299 299 298 298 298 297 297 297 297 297 297 297 297 298 298 298 298 298 297 297 296 296 296 296 296 296 296 296 295 295 294 294 294 295 295 295 296 295 295 296 296 296 295 295 296 296 296 295 295 295 294 293 292 291 291 291 291 291 292 292
293 293 293 293 293 294 294 295 295 295 295 296 295 295 295 295 295 295 296 297 298 299 300 300 300 300 299 299 298 298 297 297 297 297 297 297 297 297 297 297 297 298 298 299 298 297 297 297 296 296 296 296 296 296 296 295 294 294 294 295 295 295 295 295 295 295 295 295 295 295 295 295 295 295 295 294 293 292 291 291 291 291 291 292 292
293 292 292 292 292 292 292 292 293 293 293 293 293 294 294 294 294 294 295 295 296 297 297 298 299 300 300 299 299 298 298 297 297 297 296 296 297 297 296 296 296 296 297 298 298 298 298 298 298 297 296 296 296 297 296 296 295 294 294 294 294 295 295 295 295 295 295 295 295 295 295 295 295 295 295 294 294 293 292 291 291 291 291 291 292
292 292 292 292 291 291 291 290 291 291 291 291 291 291 292 292 293 293 293 294 294 294 295 296 297 298 299 299 299 299 298 297 297 297 297 296 296 296 296 296 296 296 296 296 297 296 297 297 298 298 296 296 297 297 297 296 296 295 294 293 294 294 294 294 295 295 295 294 294 294 294 295 294 294 294 294 294 293 292 291 291 291 291 291 291
290 291 291 291 291 291 290 290 289 289 289 289 289 290 290 290 291 291 292 292 292 293 293 294 294 295 296 297 298 298 298 297 297 296 297 296 296 296 295 295 295 295 295 295 296 296 296 296 297 297 296 296 297 297 297 297 296 295 295 294 294 293 294 294 294 295 294 294 294 294 294 294 294 294 294 293 293 293 292 292 291 291 290 291 290
289 289 289 289 289 289 289 289 289 288 288 288 288 288 288 289 289 289 289 290 290 291 291 292 292 293 294 294 295 296 297 297 297 296 296 296 296 297 296 296 295 295 295 295 295 295 295 296 296 295 295 295 296 296 296 296 295 295 295 295 294 293 293 293 294 294 294 294 293 293 294 294 294 294 293 293 293 293 293 292 291 290 290 290 290
288 288 288 287 287 287 287 287 287 287 287 287 287 287 287 287 287 287 288 288 288 289 289 290 290 291 291 292 293 294 295 295 296 296 296 295 295 296 296 296 296 296 296 295 295 295 295 295 295 295 295 295 295 295 295 295 295 295 295 295 294 293 293 293 293 293 293 293 293 293 293 293 293 293 293 292 292 292 292 291 290 290 290 290 290
287 287 287 287 286 286 286 287 287 287 287 287 287 287 287 287 287 287 287 287 287 287 287 288 288 289 289 290 291 292 292 293 294 295 295 295 295 294 294 295 296 296 296 296 295 295 295 295 295 295 295 295 295 295 294 294 294 294 294 294 293 292 292 292 292 292 293 293 293 293 293 293 293 293 292 292 291 291 291 291 290 290 289 289 289
287 287 287 287 286 286 286 286 286 286 286 286 286 286 286 287 287 287 286 286 286 286 286 287 287 287 287 288 288 289 290 291 292 292 293 293 294 294 294 294 295 295 296 296 296 295 295 295 296 296 295 295 295 295 294 294 293 293 294 293 292 291 291 291 291 292 292 292 292 292 292 292 292 292 292 292 292 292 292 291 290 289 289 289 288
287 287 287 287 287 286 286 286 286 286 286 286 286 286 286 286 286 286 286 286 286 286 286 286 286 286 287 287 287 287 288 289 290 290 291 291 292 293 293 294 294 294 295 296 296 296 296 295 296 296 296 295 295 295 294 293 293 293 293 292 291 291 291 290 290 291 291 291 292 292 292 292 292 293 293 293 293 292 292 291 290 289 288 288 288
287 287 287 287 287 286 286 286 286 286 286 286 286 286 286 286 286 286 286 286 286 286 286 286 286 286 286 286 286 286 286 286 287 288 289 289 290 291 292 293 294 294 294 295 295 296 296 295 295 295 295 295 295 295 294 293 293 293 293 292 291 291 290 290 290 290 290 291 291 292 292 292 293 293 293 293 292 292 292 291 291 289 288 288 288
287 287 287 287 287 287 286 286 286 286 286 286 286 286 286 286 286 286 286 286 286 286 286 286 286 286 286 286 286 286 286 286 286 286 286 287 288 289 290 291 292 293 293 293 294 295 295 295 294 294 294 295 295 294 294 294 293 293 292 292 291 291 290 290 290 290 290 290 291 291 291 292 292 293 293 293 293 292 292 291 290 289 289 289 288
287 286 286 286 286 286 286 286 286 286 286 286 286 286 286 286 286 286 286 286 286 286 286 286 286 286 286 286 286 286 286 286 286 286 286 286 286 287 288 289 290 291 292 292 292 293 294 294 294 293 293 293 293 293 294 294 294 293 292 291 291 291 290 290 289 289 289 290 290 290 291 292 292 293 293 293 293 292 292 291 291 289 289 288 288
286 286 286 286 286 286 286 286 286 286 286 286 286 286 286 285 286 286 285 285 285 285 285 286 286 286 285 285 286 286 286 286 286 286 286 286 285 285 286 287 288 289 291 292 292 292 292 292 293 293 293 292 292 292 292 293 293 292 292 291 291 291 290 290 289 289 288 289 289 290 290 291 291 292 293 293 293 293 292 292 292 291 290 288 288
286 286 285 285 285 285 285 285 285 285 286 286 286 286 286 285 285 285 285 285 285 285 285 285 285 285 285 285 285 285 286 286 286 286 285 286 286 285 285 286 286 287 289 290 291 292 292 291 291 292 292 291 291 291 291 291 291 291 291 291 291 291 290 290 290 289 288 288 288 289 289 290 290 291 291 292 292 292 292 291 291 290 289 288 287
285 285 285 285 284 284 284 283 283 283 284 285 285 285 285 285 285 285 285 285 285 285 285 285 285 285 285 285 285 285 286 286 286 285 285 285 285 285 285 285 285 286 287 288 289 291 292 292 291 291 291 291 291 291 290 290 290 289 290 291 291 290 290 291 291 290 289 289 288 288 288 288 289 289 290 290 291 291 290 289 288 288 287 286 286
284 284 283 283 283 283 282 282 282 282 282 283 283 283 284 284 284 284 284 284 284 284 284 284 284 284 285 285 285 285 285 286 286 285 285 285 285 285 285 285 285 285 286 287 288 289 291 292 292 291 290 290 290 290 289 289 289 289 289 289 289 290 290 290 290 289 289 288 288 288 287 288 288 288 289 289 289 289 289 288 287 286 286 286 286
283 282 282 281 281 281 281 281 280 280 280 280 281 281 281 282 282 283 283 283 283 284 284 284 284 284 284 284 284 285 285 285 285 285 285 285 285 284 284 284 285 285 285 285 286 287 288 290 292 292 291 290 290 289 289 288 288 288 288 288 288 288 290 290 289 288 288 287 286 286 286 287 287 287 288 288 288 289 288 288 287 287 286 286 286
281 280 280 280 279 279 279 279 279 278 278 278 278 278 278 278 279 280 280 281 282 282 283 283 284 284 284 284 284 284 284 285 285 285 285 285 285 284 284 284 284 285 285 285 285 286 287 288 290 292 292 291 290 289 288 288 288 288 288 288 287 288 290 289 288 288 288 287 286 286 285 286 286 286 286 287 287 288 288 288 287 286 286 286 286
279 279 278 278 278 278 278 277 277 277 276 276 276 275 275 275 275 276 277 277 278 279 281 281 282 283 283 283 284 284 284 284 284 285 285 285 285 284 284 284 284 284 284 285 285 285 285 286 288 290 292 292 290 289 288 288 288 287 287 287 287 289 289 288 287 287 287 287 287 286 286 285 285 285 286 286 286 286 286 286 286 285 285 285 285
278 278 277 277 276 276 275 275 275 274 274 274 274 274 274 273 273 273 273 274 274 276 277 277 278 280 282 282 283 283 283 283 284 284 284 284 285 284 284 284 284 284 284 284 284 285 285 285 287 288 291 292 291 289 288 288 288 287 287 287 288 288 288 287 287 287 287 286 286 286 285 285 285 285 285 285 285 285 285 285 285 284 284 284 285
278 278 277 277 276 276 275 274 274 273 272 272 272 272 273 272 272 272 272 272 272 273 273 274 274 277 279 280 281 282 283 283 283 284 284 284 284 284 284 284 284 284 284 283 284 284 285 285 285 287 289 291 291 290 288 288 287 287 287 287 287 287 287 286 286 286 286 286 285 285 285 284 284 284 284 284 285 285 284 284 284 283 283 284 284
277 277 277 277 276 276 275 275 273 272 271 270 270 270 270 270 270 270 270 270 270 270 271 271 271 273 275 277 279 280 281 281 282 283 283 284 284 284 284 284 284 284 284 283 284 284 284 285 285 285 288 290 291 290 289 287 287 287 287 287 286 286 286 285 285 285 285 285 284 284 284 284 283 283 283 283 283 283 283 283 283 283 283 284 284
276 276 276 275 275 274 274 273 272 271 270 269 269 268 268 268 268 268 268 268 268 268 268 269 269 270 271 273 276 279 280 280 280 281 281 282 283 283 283 284 284 284 283 283 284 284 284 285 285 285 287 289 289 289 288 287 287 287 287 286 286 286 285 285 284 284 284 284 284 284 283 283 283 282 282 282 282 282 282 283 283 283 283 283 284
275 275 274 274 273 272 271 271 270 270 269 268 268 267 267 267 266 266 266 267 267 267 268 268 269 269 270 271 273 275 277 278 278 279 280 281 282 283 283 283 283 283 283 283 283 284 284 284 284 285 286 288 288 287 287 287 286 286 286 286 285 285 285 284 284 283 283 283 283 283 283 282 282 282 282 282 282 282 282 282 282 282 283 283 283
274 274 273 272 271 270 269 269 269 268 268 267 266 265 265 265 265 265 265 266 266 267 267 268 268 268 269 270 271 272 274 275 277 278 279 280 281 281 282 283 283 283 283 283 283 284 284 284 284 284 286 287 287 287 287 287 286 286 286 285 285 285 284 284 283 283 283 283 282 282 282 281 281 281 281 281 281 281 282 282 282 282 283 283 284
272 271 270 269 269 268 268 268 267 267 266 265 264 264 264 264 264 264 265 265 265 266 266 267 267 268 268 269 270 271 272 274 275 277 278 279 280 281 282 282 282 282 282 283 283 284 284 283 284 284 286 287 287 287 287 286 286 286 285 285 285 285 284 284 283 283 283 282 282 282 281 281 281 281 281 281 281 281 281 281 282 282 283 284 284
269 269 268 268 268 267 267 266 265 265 264 264 263 263 263 263 263 263 264 264 264 265 265 266 266 267 267 268 269 270 271 273 274 276 277 279 280 281 282 281 281 282 282 282 283 283 283 283 283 284 285 286 286 286 286 286 286 286 285 285 284 285 284 284 283 283 283 282 282 281 281 281 281 281 280 280 280 280 281 281 282 282 283 283 284
268 267 267 266 266 265 265 264 264 264 263 263 263 263 263 263 263 263 264 264 264 264 265 265 265 266 266 267 268 269 270 271 273 274 276 277 279 281 281 281 281 281 281 281 282 282 282 283 284 284 285 285 286 286 286 286 286 285 285 284 284 284 284 283 283 282 282 282 281 281 281 280 280 280 280 280 280 280 281 281 281 282 282 282 282
265 265 265 264 264 263 263 263 263 263 263 263 263 263 263 263 264 264 264 264 265 265 266 266 266 267 267 267 268 269 269 271 272 273 275 276 278 279 281 281 281 282 282 282 282 282 282 283 284 284 285 285 285 285 285 286 285 285 284 284 283 283 284 284 283 282 282 281 281 281 280 280 280 280 280 280 280 280 280 280 281 281 281 281 280
263 263 263 263 263 263 263 263 263 263 263 263 263 263 263 263 263 264 264 265 265 266 266 267 267 268 268 269 269 269 270 271 272 273 274 275 277 278 279 280 281 282 282 282 282 282 282 283 284 284 284 284 285 285 285 285 285 284 284 283 283 283 283 283 282 282 281 281 281 280 280 279 279 279 280 280 280 280 280 280 280 280 280 280 279
262 263 264 264 264 263 263 263 263 263 263 263 263 263 263 263 263 263 264 264 265 265 266 266 267 267 268 268 268 269 269 270 271 272 273 274 275 276 278 279 280 281 282 283 283 282 282 283 283 284 283 284 284 284 284 284 284 284 283 283 283 283 283 283 282 281 281 281 280 280 280 279 279 280 280 280 280 280 280 279 279 279 279 278 278
263 263 264 264 264 264 264 263 263 263 263 263 263 263 263 263 263 263 263 264 264 264 265 265 266 266 266 267 267 268 268 269 270 271 272 273 274 275 276 277 279 280 281 283 283 283 283 283 283 283 283 283 284 283 283 283 284 284 283 283 283 282 282 282 281 281 281 281 281 280 280 279 279 280 280 280 280 280 279 279 279 278 278 277 277
265 264 265 265 264 264 264 263 263 263 263 263 263 263 263 263 263 263 263 263 263 264 264 264 265 265 265 266 266 267 268 269 270 271 272 273 274 275 275 276 277 278 280 282 283 283 283 283 283 283 283 283 283 283 283 283 283 283 283 283 282 282 282 282 281 280 281 281 281 280 280 279 279 279 279 279 279 279 279 279 278 277 276 276 276
266 266 266 266 265 264 264 263 263 263 263 263 263 263 263 263 263 263 263 263 263 263 264 264 264 265 265 266 266 267 268 269 270 271 272 273 275 276 276 277 277 277 278 281 283 283 283 283 283 283 283 283 283 283 282 282 283 283 283 282 282 282 282 281 280 280 280 281 280 280 279 279 278 279 279 279 279 279 278 278 277 277 276 276 276
267 267 267 267 266 265 265 265 264 264 264 264 264 263 263 263 263 263 263 263 263 264 264 264 265 265 265 266 267 268 269 270 271 272 273 274 276 277 278 279 279 279 279 281 283 283 283 283 283 283 283 283 283 283 282 282 282 282 282 282 282 282 281 281 280 280 280 280 280 280 279 278 278 278 278 278 279 278 278 277 277 276 276 276 276
268 267 267 267 266 266 265 265 265 265 265 264 264 264 264 264 264 264 264 264 264 264 264 265 265 265 266 268 269 269 269 271 272 273 275 277 278 279 280 280 280 281 281 283 283 283 283 283 283 283 283 283 283 283 282 282 282 282 282 282 282 282 281 281 281 280 280 280 280 279 279 278 278 278 278 278 278 278 277 276 276 276 276 276 276
268 268 268 267 266 265 265 264 265 265 264 265 265 265 265 265 265 265 264 264 265 265 265 265 265 266 267 269 270 270 271 272 273 275 276 278 279 280 281 281 282 282 283 284 284 284 283 283 283 283 283 283 283 283 282 282 282 282 282 281 281 281 281 280 280 280 280 279 279 279 278 278 278 278 278 278 278 277 276 276 275 275 275 275 275
268 268 269 268 267 266 265 265 265 265 265 265 266 266 266 266 266 266 265 265 265 265 265 266 266 267 268 269 270 270 271 272 273 275 275 277 278 279 280 281 281 282 283 284 284 284 283 283 283 283 283 283 283 283 282 282 281 281 281 281 281 281 280 279 279 279 279 279 279 279 279 278 278 278 278 277 277 276 276 275 275 275 275 275 275
269 269 269 269 268 268 267 266 265 265 266 266 266 266 266 266 267 266 266 266 266 266 266 267 267 269 270 270 271 271 271 271 272 274 275 276 277 278 279 280 281 282 283 284 284 284 283 283 283 283 283 283 283 282 282 281 281 281 281 281 281 280 280 279 279 279 279 279 279 280 279 278 278 277 276 276 276 275 275 275 275 275 275 275 274
269 269 269 269 269 268 267 267 266 266 266 266 266 267 267 267 267 267 267 267 267 267 268 268 269 270 271 272 272 272 272 272 273 274 275 276 276 277 278 279 280 282 283 283 283 283 283 283 283 283 283 283 282 282 281 281 281 281 281 281 280 280 279 279 278 278 279 279 279 279 279 278 277 277 276 275 275 275 275 275 275 274 274 274 274
269 269 269 269 269 268 267 267 267 266 266 266 267 267 267 268 268 268 268 268 268 268 268 269 270 271 272 272 273 273 273 274 275 275 276 276 277 277 278 278 279 281 282 283 283 283 283 283 282 282 282 282 282 282 281 281 281 281 281 280 280 279 278 278 277 277 278 278 279 279 278 277 277 276 276 275 275 274 274 274 274 274 274 273 273
270 269 269 270 270 269 268 267 266 266 267 267 267 267 268 268 268 268 269 269 269 268 269 269 270 271 271 272 273 273 274 275 275 276 276 277 277 277 278 279 279 280 281 282 283 283 283 282 282 282 282 282 282 282 281 281 281 281 281 280 280 279 278 277 277 277 277 278 278 277 277 277 276 276 275 275 274 274 274 273 273 273 273 273 273
270 270 270 270 270 270 269 268 267 267 268 268 268 269 268 268 269 269 269 269 269 269 269 269 270 270 271 272 273 274 275 275 275 276 276 277 277 278 278 279 279 280 281 281 282 282 282 281 281 281 281 281 281 281 281 280 281 281 281 280 280 279 278 277 277 277 277 277 277 277 277 276 276 275 275 275 274 274 273 273 273 273 273 273 273
271 270 270 270 270 270 270 269 269 269 269 269 270 270 270 270 270 269 269 269 270 270 270 270 270 271 271 272 273 274 275 275 275 276 276 277 277 277 278 278 279 279 280 280 281 281 281 280 280 280 280 280 280 280 280 280 280 280 280 280 279 279 278 278 277 277 277 277 277 277 276 276 275 275 275 274 274 274 273 273 273 272 272 272 272
271 270 270 270 270 270 270 270 270 270 270 270 270 270 270 270 270 270 270 270 270 271 271 271 271 272 272 272 273 273 274 275 275 276 276 277 277 277 277 278 278 278 279 279 280 280 280 280 280 279 279 279 279 279 279 279 279 279 279 278 278 278 277 277 277 276 276 277 277 277 276 275 275 274 274 274 273 273 273 272 272 272 272 272 272
271 271 271 270 270 270 270 270 271 271 271 271 271 271 271 270 270 270 270 270 270 271 271 272 272 272 273 273 273 273 274 274 275 275 276 276 276 277 277 277 277 278 278 278 279 279 279 279 278 278 278 278 278 278 278 278 278 278 278 277 276 276 276 276 276 276 276 276 276 276 276 275 275 274 274 273 273 273 272 272 272 272 272 271 271
271 271 271 271 271 271 271 271 271 271 271 272 271 271 271 271 271 271 271 271 271 271 272 272 272 272 272 273 273 273 273 274 274 275 275 276 276 276 276 276 276 277 277 277 277 277 277 277 277 277 277 277 277 277 277 277 277 276 276 276 275 275 275 275 275 275 275 275 275 275 275 275 274 274 273 273 273 272 272 272 272 271 271 270 270
271 271 271 271 271 271 271 271 271 271 271 272 272 272 272 272 272 272 271 271 271 272 272 272 272 272 272 272 273 273 273 273 274 274 274 275 275 275 275 275 276 276 276 276 276 276 276 276 276 276 276 276 276 276 276 276 275 275 274 274 274 274 274 274 274 274 274 274 274 274 274 274 273 273 273 273 272 272 272 271 271 271 270 270 269
271 271 270 270 270 271 271 271 271 271 271 271 272 272 272 272 272 272 272 272 272 272 272 272 273 273 273 273 273 273 273 273 273 274 274 274 274 275 275 275 275 275 275 275 275 275 275 275 275 275 275 275 275 275 274 274 274 273 273 273 273 273 273 273 273 273 273 273 273 273 273 273 273 272 272 272 272 271 271 271 270 270 269 269 269
270 270 270 270 270 270 271 271 271 271 271 271 271 271 272 272 272 272 271 271 271 271 271 272 272 272 273 273 273 273 273 273 272 273 273 273 273 274 274 274 274 274 274 274 274 274 274 274 274 274 274 273 273 273 273 273 273 273 273 273 273 273 273 273 273 273 273 273 273 273 273 272 272 272 272 271 271 271 270 270 269 269 269 268 268
Wind_Speed
20 21 21 21 21 21 21 21 21 22 21 21 21 20 19 19 19 19 20 21 22 22 21 21 21 22 23 23 23 23 22 22 23 24 25 27 28 29 29 30 33 36 39 43 46 50 52 54 56 56 55 55 56 57 57 56 55 54 54 52 52 49 46 43 39 34 32 32 32 32 30 29 30 29 29 30 30 31 32 32 31 28 27 26 24
23 23 22 22 23 23 22 22 22 22 22 21 21 21 20 20 20 19 20 21 22 23 23 22 21 21 22 23 24 24 24 23 23 24 26 27 27 29 30 32 33 34 36 38 41 45 48 51 54 55 54 55 56 57 57 57 56 56 56 56 55 53 50 47 43 39 37 37 36 36 33 31 31 30 30 31 31 31 32 33 32 29 28 27 25
25 24 24 23 23 23 23 23 23 22 22 22 22 22 22 22 22 22 21 21 21 22 23 24 23 21 21 21 22 23 24 25 25 25 27 27 27 28 29 31 34 35 37 37 38 40 44 47 50 52 53 54 56 57 57 57 57 58 58 58 57 55 52 50 47 43 41 41 41 41 38 34 33 32 31 31 31 32 33 33 32 30 29 28 27
27 27 26 25 25 24 23 23 22 22 22 23 23 23 23 24 24 24 24 23 22 21 21 22 23 23 22 21 21 21 22 24 25 26 27 28 28 29 29 31 33 35 37 38 38 40 42 45 47 48 50 52 54 56 57 58 58 59 59 58 58 57 54 53 51 47 44 44 44 43 41 38 35 34 33 33 34 33 34 34 34 32 31 30 29
27 28 28 28 28 28 27 26 25 24 23 23 23 24 24 25 25 26 26 26 25 24 23 22 22 22 23 23 22 21 20 21 23 25 27 28 29 30 30 31 33 35 36 37 38 40 42 44 45 46 48 51 54 55 56 58 58 59 59 59 59 58 55 54 54 51 48 47 46 45 43 40 38 37 36 35 35 35 35 36 36 35 34 32 31
24 25 26 27 28 29 29 29 29 28 27 25 25 24 25 25 26 26 27 27 27 27 27 25 24 23 23 23 23 23 22 21 21 22 24 26 29 31 31 32 33 35 36 38 39 40 42 43 44 45 47 50 53 54 54 56 57 58 59 59 59 58 57 56 55 53 51 50 48 47 46 43 41 40 39 37 36 35 35 37 37 37 37 35 33
21 22 24 25 26 27 28 29 30 31 30 30 28 27 26 26 27 27 27 28 28 29 29 28 28 27 26 25 24 24 23 23 22 21 21 22 25 29 31 32 34 36 37 38 40 41 42 43 43 45 46 49 52 52 53 54 55 57 58 59 58 57 57 57 56 55 53 52 51 50 48 46 43 42 41 38 37 37 37 38 39 39 38 36 34
23 23 24 25 26 28 29 30 30 31 31 31 32 32 31 30 29 28 28 28 28 29 30 30 30 30 29 29 27 26 26 25 24 23 22 22 23 25 27 29 32 35 36 38 39 41 43 44 44 45 45 47 49 50 51 52 53 56 57 58 57 56 57 57 57 56 55 54 53 52 50 48 46 45 43 41 41 41 39 39 39 39 37 36 35
24 25 26 27 28 29 30 32 33 33 33 32 33 34 34 33 32 31 31 30 29 29 29 30 30 30 31 31 30 30 29 28 27 25 25 25 24 25 26 27 29 32 35 37 38 41 43 44 45 45 45 46 47 48 49 50 51 54 56 56 56 56 57 57 57 57 56 55 54 54 52 51 50 49 48 46 44 42 40 39 39 38 37 36 36
26 27 28 29 30 31 32 33 34 35 36 36 36 36 36 36 35 34 33 32 32 31 31 31 31 31 31 32 32 31 31 30 29 28 27 27 27 27 27 28 28 30 33 35 37 40 42 43 44 45 45 46 47 47 47 48 50 52 54 54 55 56 57 57 57 59 58 57 57 56 55 55 55 54 53 50 46 42 41 40 39 38 38 38 37
28 28 29 31 32 33 34 35 36 36 37 37 38 38 39 39 38 38 37 35 34 34 34 34 33 32 32 33 33 33 32 32 31 30 29 29 29 30 30 30 29 30 32 34 37 38 40 42 44 44 43 44 47 47 46 46 48 50 52 53 54 55 56 57 59 59 59 59 59 59 59 59 59 57 55 52 48 44 43 42 40 40 41 39 38
32 32 32 33 34 35 36 36 37 38 39 39 39 39 40 41 41 41 41 40 39 38 37 37 36 35 35 34 35 35 34 33 31 31 31 30 30 31 32 33 32 32 33 34 36 38 39 41 43 44 44 43 44 45 45 46 47 47 49 51 53 55 56 57 59 59 59 60 60 61 62 62 60 59 58 55 50 47 45 44 43 42 42 39 38
36 37 37 37 38 38 39 39 39 40 40 41 42 41 42 43 44 44 43 43 43 42 41 40 40 39 39 38 37 37 36 35 33 32 31 31 31 31 33 34 35 35 35 35 36 38 40 41 43 44 45 44 42 43 44 44 44 44 45 48 52 54 56 57 58 59 59 60 60 63 65 63 61 61 59 56 52 50 49 48 45 44 43 41 39
41 41 42 42 43 43 43 44 44 44 43 43 44 44 44 45 46 47 46 45 45 45 45 44 43 43 43 43 43 41 39 38 36 34 33 32 32 32 34 36 37 37 37 37 38 39 40 42 44 45 45 45 43 43 43 43 43 42 43 45 49 53 55 57 58 59 59 60 61 62 63 62 61 61 59 56 55 53 51 50 47 45 44 42 40
43 46 45 45 46 46 46 46 46 48 49 47 46 46 47 46 47 48 49 48 47 47 47 47 46 46 45 45 46 46 44 41 39 38 36 34 33 33 34 36 38 39 40 40 40 40 41 42 44 45 46 46 45 44 44 43 44 43 43 44 46 49 52 55 57 58 59 61 62 61 60 60 59 58 57 56 55 54 51 49 47 45 44 43 42
45 49 49 48 48 47 46 46 46 48 51 52 51 50 49 49 49 49 50 51 51 50 49 49 48 49 48 47 48 49 48 46 44 42 40 38 36 36 36 37 39 40 42 43 42 42 42 42 44 45 46 46 46 45 44 42 43 45 45 45 45 46 49 50 52 55 57 59 62 62 61 61 59 58 57 56 54 53 51 48 46 45 45 44 43
49 49 48 49 49 47 46 46 45 45 48 53 55 54 54 54 53 53 52 53 54 54 53 52 51 51 51 51 51 51 51 49 48 47 45 42 40 39 39 39 40 41 42 44 44 44 44 43 43 44 45 46 45 45 44 43 43 45 47 46 45 46 47 47 48 51 54 57 60 61 61 61 60 59 57 55 54 53 52 50 49 48 46 44 44
51 48 49 50 48 46 46 45 45 45 47 51 54 56 57 57 57 58 57 57 57 57 57 57 56 55 54 54 53 54 53 52 51 50 49 46 44 42 42 42 42 42 43 44 45 46 46 45 44 43 45 45 44 43 44 44 43 45 46 47 47 48 48 47 47 48 51 55 59 59 59 60 59 59 58 57 56 55 53 51 50 49 48 46 45
51 50 52 53 49 47 47 46 47 48 49 51 53 54 55 55 56 60 61 60 61 61 61 61 61 60 59 58 57 56 57 55 53 52 52 51 49 46 44 44 45 44 44 45 45 46 47 48 46 44 43 43 43 42 43 43 43 44 45 45 48 50 50 48 47 47 48 52 56 58 58 58 58 57 57 57 57 55 52 50 50 49 48 47 45
53 53 54 54 51 49 49 49 49 49 50 52 52 54 54 53 53 57 59 60 62 64 64 64 65 65 65 63 62 61 60 59 57 55 53 53 53 51 48 46 47 47 46 46 46 47 48 49 48 46 43 42 41 41 41 41 42 43 44 46 49 50 48 46 47 46 46 49 53 55 57 58 59 59 57 57 56 54 52 51 50 48 45 44 43
56 56 56 54 52 51 50 50 50 51 52 53 53 55 56 53 53 55 56 57 60 62 62 63 65 68 68 67 66 65 64 63 62 59 56 55 55 55 53 50 48 48 48 47 47 48 48 49 49 48 44 42 41 40 39 39 40 42 44 46 47 46 44 45 46 46 46 48 50 52 54 56 58 60 60 59 58 55 53 53 51 47 44 42 42
55 56 56 55 54 54 54 54 54 53 53 53 53 55 56 54 54 55 55 55 57 60 61 61 64 69 71 70 70 69 68 66 65 63 61 59 57 56 56 54 50 48 48 49 49 49 49 49 49 48 45 43 41 40 38 37 38 40 43 44 44 43 42 43 45 45 47 48 49 51 52 54 56 58 59 60 59 57 56 54 50 46 44 43 42
54 55 56 57 58 58 59 59 58 56 54 52 51 53 56 55 54 53 53 54 54 57 62 62 62 66 71 72 71 71 70 68 67 66 65 63 60 58 58 57 54 50 49 50 50 51 50 49 48 47 46 44 42 40 37 35 36 39 41 41 42 43 43 43 45 47 48 48 49 51 53 54 56 56 56 58 58 58 56 53 49 46 44 43 42
53 55 56 57 59 59 59 59 58 57 56 54 52 54 55 54 53 53 52 52 51 53 57 58 54 57 64 69 72 72 70 67 66 65 64 64 63 61 60 59 57 53 51 50 51 51 50 49 48 46 45 44 42 40 36 33 34 37 39 39 40 41 43 45 47 48 49 49 51 52 53 54 54 55 56 58 58 57 54 51 47 46 45 43 42
52 54 55 57 58 58 57 58 57 55 54 52 51 53 53 50 49 49 46 45 44 45 46 46 43 45 50 55 61 66 65 62 62 61 60 60 61 61 60 59 58 55 52 51 51 50 49 49 47 44 43 42 41 39 36 33 34 35 36 36 37 39 42 45 48 49 50 51 51 52 52 51 51 54 57 58 57 55 52 49 47 45 44 43 40
53 55 55 56 56 55 55 56 55 53 51 49 48 49 48 44 43 42 38 37 38 39 40 39 39 40 42 43 46 50 52 52 53 53 53 54 56 58 59 58 56 54 52 50 49 49 49 48 45 42 41 40 40 39 37 34 33 34 34 34 36 40 43 45 47 50 51 51 50 49 49 50 51 53 55 55 54 54 52 50 48 46 45 43 40
52 53 54 54 54 53 53 53 52 50 49 47 46 45 41 37 36 37 35 34 35 36 37 38 38 38 39 40 40 42 43 43 44 44 45 46 48 50 51 52 52 51 50 49 48 47 48 47 43 40 40 39 39 40 38 35 34 34 35 35 37 42 45 45 46 48 49 49 49 48 48 49 51 53 54 54 53 53 51 49 47 46 44 42 39
50 51 52 52 52 51 50 49 48 48 47 46 45 43 39 35 34 36 36 35 36 37 38 38 39 38 38 39 40 40 41 41 40 39 38 38 38 38 38 41 44 45 45 45 44 44 44 42 38 36 38 39 39 40 39 37 36 36 36 36 38 42 45 45 44 45 47 47 47 47 48 50 51 52 53 53 52 51 50 48 46 45 43 40 39
48 49 49 49 49 48 47 45 45 46 46 45 44 43 40 37 37 39 39 37 37 39 40 41 41 40 39 40 40 40 42 40 37 35 33 33 34 33 32 34 35 36 37 38 37 35 35 34 32 33 37 39 40 41 41 40 39 38 37 37 38 41 44 45 45 44 45 45 45 46 48 49 50 51 52 52 51 50 49 47 45 43 41 39 38
45 45 45 45 45 44 44 44 44 44 45 46 46 44 42 38 36 38 39 38 37 38 40 43 44 43 44 46 44 44 46 45 40 37 35 34 34 33 33 31 29 28 28 28 27 27 28 29 30 33 37 39 40 42 43 41 40 39 38 38 38 40 43 45 45 44 44 44 44 46 47 47 49 51 52 52 51 49 48 46 45 42 40 38 37
42 44 44 45 44 44 44 44 43 43 44 45 45 45 44 41 37 36 37 38 38 39 40 42 43 43 46 49 49 48 49 48 45 42 40 37 35 35 35 33 31 29 26 24 24 25 27 29 31 35 38 40 41 43 44 42 41 39 37 37 38 39 42 44 44 44 44 44 45 46 46 47 49 50 50 50 50 49 47 45 44 41 39 38 37
41 43 44 45 44 43 43 43 42 42 43 43 43 43 43 42 41 39 37 35 36 37 38 40 41 42 43 46 48 49 49 49 49 47 43 40 37 36 34 33 32 31 29 27 28 28 29 31 33 36 39 41 42 43 42 42 41 39 37 37 38 39 42 43 42 42 44 45 46 46 47 47 48 49 49 49 49 48 47 46 43 41 40 38 37
40 41 43 43 43 42 42 42 41 41 41 42 42 41 41 41 42 42 41 38 36 37 37 37 38 39 40 40 42 44 44 45 45 46 45 45 44 42 39 36 34 32 30 30 32 32 32 34 36 37 40 41 42 41 40 39 39 39 38 37 38 39 41 42 41 42 43 44 46 47 47 48 48 48 48 48 48 48 47 45 43 42 40 39 37
39 40 41 40 40 41 40 40 40 40 40 41 41 41 41 41 41 40 41 42 40 39 39 38 37 35 36 37 37 37 37 37 37 38 40 41 42 43 43 42 41 38 36 35 35 34 34 35 37 38 39 40 40 40 39 37 37 37 37 37 37 38 40 41 41 42 43 43 44 45 47 48 48 48 49 49 48 47 45 44 43 42 40 38 36
39 39 39 38 38 39 39 38 39 40 40 41 42 42 42 42 41 40 40 41 42 42 42 43 40 36 35 35 35 35 35 34 34 33 33 34 35 36 38 39 40 39 38 37 38 37 35 35 37 37 37 38 38 38 37 37 36 37 37 37 38 39 40 41 41 42 42 44 44 45 46 47 48 49 49 49 47 45 44 43 43 41 39 37 34
40 39 38 36 35 36 37 38 38 39 40 41 41 42 43 42 41 41 40 40 41 41 41 41 41 39 36 34 33 33 32 31 31 30 30 30 31 34 36 37 36 36 36 36 37 37 35 34 35 36 36 36 36 37 36 35 36 37 38 38 39 39 40 41 42 43 43 44 45 45 45 46 47 47 47 46 44 43 43 42 41 39 36 33 30
39 38 37 35 34 35 36 37 37 38 39 40 40 41 41 41 40 40 40 39 39 39 39 39 38 39 38 33 31 30 28 26 25 24 21 20 21 24 29 33 34 34 35 35 35 36 34 32 33 34 33 32 34 37 36 36 36 37 37 38 39 40 40 41 42 43 45 45 45 45 45 45 45 45 44 43 42 42 41 39 37 35 32 29 27
38 37 36 34 34 34 35 36 37 38 38 39 39 39 39 39 39 39 39 39 39 39 39 38 37 38 38 34 32 30 27 23 20 18 16 16 15 14 16 22 26 28 30 31 33 34 32 29 29 31 29 28 32 36 37 36 36 37 37 37 38 39 39 40 41 43 45 45 45 44 43 43 43 43 41 40 40 40 38 36 34 32 29 27 25
38 36 33 31 31 32 33 34 36 37 37 37 38 39 39 39 39 38 38 38 38 37 37 36 35 36 36 34 32 30 28 25 23 22 22 22 19 14 13 15 18 20 23 26 30 31 29 27 26 26 25 25 30 35 38 37 37 36 36 37 38 39 40 41 42 43 44 44 43 42 41 41 40 38 37 37 37 37 35 34 31 30 28 26 24
36 34 32 30 29 30 31 33 34 35 36 37 38 38 38 38 38 37 36 36 36 35 35 35 33 33 33 32 31 29 28 30 30 28 27 26 23 19 17 16 15 16 19 23 26 27 27 25 23 22 22 24 29 34 36 36 35 34 35 37 39 40 41 41 42 43 44 43 43 41 40 38 37 35 34 34 33 33 33 31 29 27 25 23 22
34 33 31 29 28 28 30 31 32 33 34 35 36 37 36 36 35 35 34 34 34 34 34 34 33 32 30 30 29 27 25 26 26 26 26 25 24 22 19 16 15 15 17 22 25 25 25 21 19 19 21 24 28 32 34 33 33 33 35 37 38 39 40 41 42 43 43 43 42 40 38 36 35 34 33 32 32 30 29 27 26 24 23 21 21
32 31 30 29 27 27 28 29 30 30 31 32 32 33 34 33 33 32 32 32 32 33 33 33 33 31 29 28 29 27 25 22 21 22 22 22 22 22 20 17 16 15 14 18 21 22 22 19 16 17 20 22 25 29 30 31 32 33 34 36 37 37 38 39 39 40 41 42 41 39 37 35 33 32 32 32 31 29 27 25 24 23 22 22 21
31 30 29 28 26 26 26 27 28 28 28 28 28 29 30 30 30 31 32 32 32 33 34 34 34 32 31 29 27 25 22 20 18 18 18 17 17 17 17 16 15 13 12 13 15 18 18 15 12 14 18 20 22 24 26 29 31 32 33 34 34 35 36 36 37 38 40 41 39 37 35 33 32 32 32 31 29 27 26 25 24 23 22 21 19
30 29 28 26 25 25 25 25 26 27 27 27 26 26 26 26 26 27 27 28 28 29 29 29 29 28 28 26 23 20 18 17 16 15 13 12 12 13 13 13 12 10 10 11 12 14 13 10 9 13 17 21 22 24 27 29 30 29 29 29 30 31 33 33 34 36 38 39 37 35 33 31 31 31 31 30 28 27 26 24 23 22 20 19 17
29 28 27 26 25 25 25 25 25 26 26 26 27 27 26 25 25 24 23 24 24 24 23 23 23 23 23 22 20 18 16 16 15 14 12 10 10 10 10 10 8 8 8 9 9 9 7 6 9 13 18 21 24 26 28 28 28 27 26 24 24 25 27 28 29 32 35 36 34 32 31 30 31 31 30 29 28 26 24 23 22 20 18 16 15
28 26 26 25 25 25 26 26 26 26 26 27 27 27 27 27 26 26 25 24 24 24 23 23 23 22 21 21 20 18 16 15 14 13 12 11 10 9 8 8 7 7 7 7 6 6 6 7 11 15 19 22 24 26 27 27 26 24 22 20 19 20 21 23 26 30 32 33 31 30 30 31 31 30 28 27 26 24 23 21 20 18 16 15 13
27 25 25 25 25 25 26 26 26 27 27 27 27 27 27 28 28 27 26 25 24 24 23 23 22 22 21 20 19 18 17 15 14 13 12 11 10 8 7 6 6 5 5 5 5 6 7 8 11 14 18 21 23 23 23 23 21 18 16 14 13 14 16 21 26 29 29 28 27 28 29 30 29 27 25 24 23 22 21 20 18 16 15 14 12
27 25 24 24 25 25 25 26 27 27 27 27 27 27 28 28 28 28 27 26 25 24 24 23 22 21 20 19 19 18 17 16 15 14 13 12 10 9 7 6 6 5 5 4 3 4 4 5 8 10 14 16 17 16 16 15 14 14 13 13 12 13 18 24 27 27 26 25 25 25 26 26 25 24 23 22 21 20 19 18 16 15 14 13 12
27 25 24 24 24 25 26 26 27 27 27 28 28 28 28 29 29 29 28 28 27 26 25 23 22 21 20 19 19 18 16 16 15 14 13 12 11 10 10 9 8 7 7 6 6 6 5 4 3 5 8 11 12 14 15 17 18 19 19 20 20 21 24 26 26 25 25 25 24 24 23 22 22 21 21 20 19 18 17 16 15 14 12 12 11
25 25 24 24 24 25 25 25 26 27 27 28 28 29 29 30 30 30 30 30 30 29 28 26 25 23 22 22 21 20 19 19 18 18 17 17 16 16 15 15 15 14 14 15 15 15 14 13 13 13 15 16 18 19 20 21 22 22 23 23 24 24 25 25 24 24 24 24 23 22 21 20 20 19 18 18 17 16 15 14 14 12 12 11 11
23 23 23 24 24 24 24 25 25 26 27 28 28 29 29 30 30 31 31 31 31 30 30 30 28 27 26 25 25 24 24 23 23 22 22 22 21 20 20 20 20 20 20 21 21 20 20 20 20 20 20 20 20 21 21 21 22 22 22 23 23 23 22 22 22 21 21 20 19 19 18 17 17 17 16 16 15 14 14 13 12 12 11 11 11
Wind_Direction
5 4 2 360 358 356 355 354 353 354 354 353 352 351 349 347 343 340 338 338 338 338 337 332 325 318 310 305 299 293 288 284 282 280 277 276 275 274 271 269 265 263 263 261 257 255 254 252 252 251 250 249 248 247 246 246 244 243 243 242 241 240 238 236 235 237 242 244 245 246 245 243 242 241 240 239 237 232 228 227 229 230 230 232 234
357 357 355 353 351 349 348 347 347 347 346 345 344 343 343 342 341 339 337 335 334 334 335 335 333 327 320 313 307 301 296 290 286 282 279 277 276 276 275 272 268 266 265 263 261 259 258 256 255 254 252 251 250 249 248 247 245 244 243 241 241 240 238 237 235 234 238 241 243 245 244 242 241 240 239 238 238 235 230 229 231 231 232 234 235
347 347 347 347 347 346 345 344 343 342 341 341 340 339 337 336 335 335 334 333 331 329 328 329 330 329 327 322 316 309 303 298 293 287 284 281 278 277 276 275 272 269 268 266 263 261 261 260 259 257 254 252 251 250 249 248 246 245 244 242 241 240 238 238 237 235 237 240 243 244 244 242 241 240 238 237 236 235 232 233 234 234 235 236 237
339 338 338 338 339 340 341 341 340 339 337 336 336 336 335 334 333 331 330 330 328 326 324 322 322 323 324 324 322 317 310 304 299 293 288 285 281 279 277 276 274 272 271 269 268 265 262 261 261 259 256 254 254 252 250 249 247 245 245 243 242 241 239 239 239 237 237 240 242 244 245 244 243 241 238 234 235 234 234 235 236 236 236 236 237
336 335 334 334 333 333 333 335 336 336 336 335 334 333 332 332 331 330 328 326 325 324 323 321 319 317 318 319 320 320 317 311 303 298 293 288 284 280 277 275 274 273 272 271 270 268 265 263 263 261 258 256 256 254 251 249 247 245 245 244 243 242 240 240 240 238 238 239 241 243 244 242 241 241 237 234 234 234 232 234 235 236 236 235 235
330 331 331 331 331 330 330 330 331 332 333 334 334 333 331 330 328 328 327 326 324 323 322 321 319 317 315 315 315 316 317 316 312 306 300 294 287 283 279 275 273 272 271 270 270 268 266 265 265 263 260 257 257 256 253 251 248 246 246 245 244 242 240 240 240 239 237 238 240 242 243 242 241 241 239 235 235 234 233 232 234 235 235 234 233
323 326 328 329 329 329 328 328 328 328 328 329 329 329 329 329 328 326 325 324 323 322 321 321 320 318 316 314 312 312 312 314 316 316 312 304 295 289 285 279 275 272 270 269 269 268 266 265 264 263 261 260 259 258 256 254 251 249 248 247 245 242 240 240 240 238 236 236 237 240 242 242 241 241 240 236 233 232 231 230 231 233 233 233 233
321 322 323 325 326 326 326 325 325 324 324 325 324 323 323 324 324 324 324 322 321 320 320 319 319 318 317 315 313 312 310 311 313 316 317 315 307 299 292 285 279 274 271 269 268 267 266 264 263 262 261 261 262 261 259 256 253 252 251 249 245 243 241 240 239 238 236 234 235 237 239 240 239 238 237 234 230 230 230 230 231 232 232 233 233
319 320 319 320 320 320 321 322 321 321 320 320 321 320 318 318 318 319 319 319 319 317 316 315 315 315 316 315 314 313 311 310 311 313 315 316 315 310 302 295 287 280 274 270 267 265 265 264 262 261 261 261 261 262 262 259 256 254 253 250 246 243 242 240 238 237 234 232 233 235 236 237 237 237 236 235 234 234 234 233 232 231 230 231 232
315 315 315 315 315 315 315 315 315 315 315 316 316 316 315 314 313 314 314 314 314 314 313 312 311 311 311 312 312 312 312 311 310 311 312 314 315 313 308 302 295 288 281 275 270 267 266 266 264 262 261 261 260 260 262 261 258 256 255 251 247 244 242 240 238 236 234 232 232 233 233 234 236 238 239 240 238 237 236 235 233 231 228 228 230
313 311 310 310 310 309 310 309 309 308 308 309 310 311 311 310 309 310 310 310 310 310 310 310 310 309 308 307 308 308 309 310 311 311 310 310 311 311 310 306 300 292 286 282 277 273 269 267 267 266 264 260 259 259 261 261 259 257 255 252 248 246 243 240 239 237 235 233 233 234 234 235 237 238 240 240 238 236 236 237 234 231 229 228 229
312 311 309 308 307 307 306 306 305 304 304 304 304 305 305 305 305 306 306 306 306 306 306 306 306 306 306 305 304 304 304 305 307 309 310 309 308 307 307 306 302 296 290 284 281 279 275 270 268 269 268 264 261 260 259 259 259 259 256 252 249 247 245 242 240 238 237 235 234 234 235 237 237 239 240 240 239 238 237 237 234 232 233 232 231
313 311 310 309 309 308 307 305 303 301 300 301 301 300 300 300 300 300 301 302 302 302 302 303 302 303 303 302 302 301 301 301 302 304 306 306 306 305 303 301 301 299 294 288 283 280 277 274 271 269 268 267 266 264 260 258 259 260 258 253 250 247 245 243 242 240 240 240 238 238 239 239 238 241 243 243 242 240 237 237 234 232 234 234 233
314 313 311 310 310 310 309 306 304 301 300 299 299 298 298 297 297 297 297 297 297 297 298 299 299 299 300 300 300 299 298 299 299 300 300 301 303 303 301 299 298 297 296 293 288 283 278 275 273 271 269 267 267 265 263 261 259 259 259 255 251 248 245 243 242 240 239 239 239 241 243 242 242 246 247 245 244 243 241 240 238 235 235 234 232
314 314 312 311 310 309 309 307 305 303 302 300 299 298 296 296 294 294 294 294 293 293 293 294 295 295 296 297 297 297 296 297 297 297 297 297 298 299 298 297 297 296 295 294 292 288 284 277 273 271 270 268 266 263 263 262 260 259 258 256 255 252 248 246 245 242 239 239 240 241 242 244 245 247 246 245 244 244 243 243 241 237 233 229 228
312 313 312 310 309 307 307 305 303 302 301 301 301 299 297 295 293 292 292 291 291 290 290 290 290 291 292 292 292 293 294 295 295 295 295 295 295 296 295 295 295 294 293 293 292 291 288 282 277 273 269 267 266 264 263 262 260 259 258 258 257 256 253 251 250 246 244 242 243 242 242 243 245 246 246 246 244 243 240 237 234 231 228 225 225
313 312 310 309 308 306 305 303 301 299 298 298 300 299 297 295 293 291 290 290 289 289 288 288 287 287 288 288 289 289 290 291 293 294 294 294 294 294 294 293 292 292 291 291 290 290 288 286 283 278 273 269 266 265 264 262 260 259 258 257 256 255 255 255 251 248 246 244 244 243 242 242 243 244 245 245 244 242 239 234 230 227 225 224 224
313 311 308 307 306 304 302 300 298 297 295 293 295 296 295 294 292 290 289 287 286 286 286 285 285 284 284 285 285 286 286 287 289 290 290 291 291 291 292 291 290 289 288 288 289 288 288 287 286 282 278 273 268 264 263 263 260 259 258 256 254 253 254 253 249 246 244 243 242 241 240 240 240 241 241 241 241 241 239 237 235 231 227 225 225
310 308 306 305 303 300 298 297 296 295 293 291 291 293 294 292 290 288 288 286 284 284 283 283 282 282 281 281 281 281 282 283 284 285 286 287 288 288 289 289 288 287 286 287 287 287 286 286 285 284 282 279 271 264 262 261 259 258 256 254 251 252 252 251 247 245 244 242 240 238 237 236 236 236 237 237 238 238 238 238 237 234 230 227 225
307 305 304 303 300 297 296 296 294 294 293 291 290 291 292 291 288 288 289 287 285 283 282 281 280 279 279 279 279 278 278 279 280 280 281 282 284 285 285 286 285 285 285 285 285 285 285 283 282 283 283 281 275 267 263 261 259 258 255 251 250 252 252 249 247 246 245 243 242 240 237 235 234 234 234 234 235 235 234 234 233 232 230 227 224
306 305 304 302 299 297 296 295 293 292 292 291 289 289 290 289 286 287 289 288 286 285 284 282 280 279 277 276 276 276 275 276 277 277 277 277 279 281 282 282 282 282 283 283 282 282 282 281 281 281 281 279 276 271 266 262 261 259 255 253 253 254 252 250 250 248 245 242 241 239 236 234 232 232 232 232 232 231 230 230 230 229 227 225 224
306 305 303 301 299 298 297 296 294 293 292 291 289 288 288 287 286 287 287 285 284 284 284 283 281 280 279 276 275 274 273 272 273 273 274 274 274 276 278 279 279 279 280 280 279 278 279 280 281 281 279 277 276 273 268 264 262 260 258 257 257 255 252 251 249 246 243 239 236 233 231 229 227 226 226 227 229 228 227 227 226 225 225 224 224
306 304 302 301 299 299 298 297 296 294 293 292 290 288 287 287 287 286 285 284 283 283 284 285 284 284 284 281 277 274 273 272 271 271 271 271 271 272 274 275 276 276 276 276 276 277 277 278 280 279 277 275 274 272 269 264 260 259 258 258 257 255 251 246 242 240 238 235 230 227 226 225 223 222 221 221 223 224 224 224 223 223 223 222 222
304 303 301 301 300 299 298 297 297 297 297 296 294 292 292 290 288 287 285 284 283 282 285 287 285 284 287 287 284 279 276 274 273 271 270 270 269 269 270 271 273 273 273 274 274 275 275 276 278 276 273 271 270 270 268 264 259 257 257 254 252 251 248 240 235 233 231 228 226 226 225 223 221 219 218 218 219 221 222 223 223 223 222 220 220
304 304 303 302 302 302 302 302 303 304 304 303 301 301 301 299 295 292 288 284 280 277 278 279 277 277 281 284 285 284 282 278 275 273 271 270 270 268 268 268 269 271 272 272 273 274 274 275 275 272 268 267 267 267 266 261 257 257 256 250 243 241 240 235 230 227 225 224 225 225 224 220 218 217 219 220 220 222 223 223 221 219 218 218 218
307 306 306 305 305 306 307 308 309 310 310 309 308 307 306 302 296 292 285 279 277 274 272 273 273 273 273 274 278 282 283 280 277 273 270 268 268 268 267 267 268 269 270 270 271 272 273 272 270 266 263 263 263 261 260 257 254 253 250 243 235 232 232 230 226 224 223 222 221 221 220 218 216 218 220 220 220 221 221 220 218 216 216 217 217
309 308 308 308 308 309 310 311 312 312 311 310 309 306 301 293 288 285 282 279 277 275 273 273 273 273 274 273 275 277 278 277 275 271 268 267 267 267 266 267 268 268 268 268 268 268 270 270 266 261 259 259 259 258 258 257 254 250 244 237 230 228 229 228 225 224 223 222 219 218 217 216 216 218 218 217 217 219 219 219 218 217 217 218 218
309 308 308 308 308 309 310 310 311 310 309 307 305 302 298 290 283 282 283 282 280 277 276 274 273 274 275 276 277 278 276 273 271 269 267 266 266 267 268 270 270 267 266 267 267 266 267 267 262 255 253 253 253 253 253 252 250 247 243 237 231 229 228 227 225 225 224 221 218 216 215 215 215 216 215 214 214 216 217 217 218 219 219 218 217
308 307 307 308 308 309 308 307 306 305 305 304 302 299 297 292 288 286 286 284 279 277 276 275 275 276 276 275 276 276 275 273 272 271 270 267 265 265 267 270 272 269 268 269 268 265 264 262 255 248 245 245 245 245 244 244 243 242 241 238 232 229 227 225 222 221 220 218 215 214 213 212 211 212 211 210 211 213 215 216 217 218 218 218 218
308 309 310 309 308 307 305 304 304 303 303 303 302 300 297 294 289 285 285 285 281 278 278 277 278 279 278 275 274 272 274 276 276 275 273 270 267 265 264 265 267 268 269 269 265 259 256 254 249 245 241 239 239 240 240 239 237 236 236 235 231 229 227 225 221 217 216 214 213 213 211 208 206 206 206 207 209 211 213 215 216 216 216 217 216
312 312 311 309 308 306 305 304 304 303 302 302 301 300 298 296 292 287 285 285 285 283 281 280 280 280 278 278 277 274 273 275 275 274 273 272 270 267 264 262 262 262 262 261 257 252 249 247 247 246 242 238 238 240 239 236 233 232 231 230 229 227 227 225 219 213 211 212 212 212 211 208 206 205 205 207 210 212 212 213 214 215 216 217 216
313 312 312 311 309 308 307 306 304 303 303 302 301 299 298 297 296 295 292 289 286 286 285 284 283 283 281 280 280 278 275 273 271 271 270 269 269 269 267 265 263 261 259 255 252 250 249 247 247 246 243 240 239 239 236 233 232 230 227 225 225 225 226 224 218 211 210 212 213 212 211 209 208 208 209 211 213 213 212 211 212 214 214 214 213
315 314 313 313 312 311 310 308 307 305 305 304 302 301 299 297 297 298 299 298 294 291 289 287 286 286 285 284 283 282 280 278 274 271 270 268 267 267 268 267 266 264 260 254 249 247 247 248 248 247 245 243 241 239 234 230 230 229 227 226 225 225 224 223 218 212 211 214 216 215 213 212 212 212 212 213 214 214 212 211 212 212 211 210 209
319 316 316 316 315 314 313 312 310 309 308 306 304 302 300 300 298 298 299 301 301 300 298 297 295 292 290 290 288 286 285 284 279 274 270 267 265 265 264 264 264 262 258 253 247 243 243 247 248 247 244 242 242 239 234 229 228 228 227 225 223 221 220 218 215 211 212 215 217 217 216 215 213 213 212 211 212 212 211 211 210 209 207 207 206
322 320 320 321 319 317 317 315 313 312 310 309 307 305 304 303 301 298 298 299 300 301 302 304 305 302 298 295 294 292 290 288 286 280 273 268 266 266 263 260 258 255 251 248 243 239 240 246 249 247 244 241 240 238 233 229 228 228 225 221 218 217 216 214 212 211 213 216 217 217 216 214 213 213 213 212 210 210 209 209 209 208 207 206 205
326 324 324 325 324 322 321 319 318 316 315 314 312 310 308 306 303 301 301 300 299 299 300 303 307 308 305 302 301 300 298 295 292 287 280 275 271 266 259 252 249 247 245 244 241 237 238 245 249 249 247 244 241 237 232 228 227 227 226 223 220 218 216 213 212 212 214 215 216 216 215 213 211 210 211 210 209 209 208 208 207 206 205 205 205
329 327 327 328 328 326 324 322 321 321 319 318 316 313 310 308 305 303 301 299 299 300 300 302 305 308 309 312 316 317 315 308 297 291 292 291 283 268 253 244 243 245 244 241 238 235 236 242 249 250 250 249 244 238 232 229 228 227 225 223 222 222 220 217 215 214 214 214 213 213 213 212 211 210 209 208 207 207 206 205 204 202 201 203 203
331 330 330 331 330 328 324 322 320 320 318 317 316 315 312 311 309 307 304 303 303 303 303 305 306 308 313 320 326 328 328 322 312 311 322 325 314 290 260 248 248 251 247 239 234 232 235 242 249 251 253 253 245 236 231 228 226 225 223 222 222 222 220 216 213 212 211 211 212 212 212 212 211 211 210 208 205 203 202 201 199 198 198 199 200
332 332 332 334 334 332 328 325 323 321 320 320 320 320 318 316 315 313 310 309 307 306 306 307 308 311 315 319 324 328 328 325 323 328 332 330 326 319 298 276 267 262 252 239 232 232 236 244 249 251 253 250 239 232 228 226 223 223 224 224 221 218 216 212 210 209 210 210 211 213 213 212 210 208 206 205 203 200 197 196 195 196 197 199 200
332 333 336 338 339 338 335 331 328 326 325 324 324 323 322 321 321 319 316 313 310 310 310 309 311 317 322 323 325 326 321 316 316 318 318 320 323 324 314 300 288 276 257 239 231 232 236 242 248 250 249 243 233 227 225 223 222 224 227 226 223 219 217 214 212 211 212 212 213 213 212 209 204 201 199 198 198 196 194 193 193 195 197 198 200
334 336 338 341 342 341 340 337 334 331 328 325 325 325 326 326 326 324 322 320 317 316 316 316 318 324 330 334 337 333 320 311 311 310 309 312 317 317 313 309 306 290 258 235 228 230 234 241 249 248 243 237 230 225 223 222 223 226 227 225 222 220 217 214 213 213 213 213 213 211 206 200 197 195 194 193 192 191 192 192 192 193 194 197 200
338 339 340 343 345 345 344 342 340 337 331 327 326 328 329 330 330 330 329 328 326 323 322 323 326 332 337 342 343 336 324 315 311 308 305 306 310 312 312 314 315 301 264 237 231 235 239 247 255 252 243 237 230 225 223 223 224 225 226 225 223 220 218 215 214 213 212 212 210 204 197 192 191 192 191 189 187 187 188 188 190 192 194 196 200
343 343 343 344 347 350 349 347 344 342 340 337 336 335 335 335 335 335 335 334 333 330 328 328 331 334 335 336 335 330 323 317 312 308 305 304 307 313 316 317 318 310 286 261 250 246 247 254 262 255 245 238 234 231 227 225 224 225 225 225 224 222 219 216 212 210 209 207 202 196 191 189 188 187 187 186 185 185 186 188 190 192 194 197 201
346 347 347 347 350 354 356 355 353 352 352 352 351 349 347 345 342 339 338 336 335 333 330 328 328 327 326 327 329 332 331 327 320 318 318 316 315 317 316 314 313 307 288 271 257 250 250 257 259 246 235 229 227 226 224 223 224 226 227 227 227 225 221 218 215 211 207 201 194 189 188 188 186 184 184 183 183 184 186 189 191 193 195 198 202
350 349 350 351 355 359 1 2 2 1 1 2 1 0 359 357 354 352 349 345 343 342 340 337 334 332 331 334 337 340 341 338 333 331 331 328 323 319 312 306 300 284 263 249 242 242 248 252 244 235 228 223 220 218 218 219 221 224 227 231 233 231 226 223 219 212 203 196 190 188 187 186 184 183 182 180 181 183 186 189 192 194 197 202 205
354 352 353 356 359 3 5 6 8 8 8 8 7 6 6 5 3 2 0 357 356 355 354 352 351 350 348 347 346 346 347 348 347 346 344 340 332 323 313 306 298 278 258 244 239 246 252 248 239 230 222 217 214 213 214 215 216 219 223 227 230 231 228 221 212 201 194 191 190 189 186 183 181 180 180 179 179 182 185 189 194 196 199 205 209
358 357 358 360 3 6 8 9 11 12 12 13 12 11 12 12 11 9 7 6 6 6 4 3 3 1 360 359 358 357 356 356 356 357 357 355 350 344 337 331 321 301 282 267 261 259 253 244 233 224 217 215 214 212 211 211 211 213 213 210 213 219 213 201 192 187 185 187 189 186 183 180 178 177 177 177 180 184 187 190 195 198 202 208 214
3 2 2 4 7 9 11 13 15 15 16 18 18 18 18 18 17 17 16 14 14 14 14 13 12 11 11 11 11 9 8 7 6 6 6 4 4 5 2 357 349 336 324 312 296 282 263 240 227 219 216 214 210 205 200 192 184 177 169 163 167 178 179 177 176 175 175 177 179 179 178 176 174 174 176 179 183 187 190 193 198 202 205 211 218
6 6 7 9 12 13 14 17 19 19 21 22 23 23 24 25 25 25 25 24 23 23 22 22 22 22 23 24 23 23 23 23 24 26 28 28 32 38 42 44 45 45 50 64 74 77 83 103 147 173 176 174 167 162 158 153 148 144 142 142 147 155 161 164 165 166 166 167 168 169 170 171 171 174 178 181 185 190 194 197 202 206 210 217 224
6 9 10 12 15 16 18 20 23 23 24 25 26 27 29 31 32 33 33 33 33 32 32 33 34 34 36 38 40 41 43 44 46 49 52 55 58 63 68 72 76 80 83 87 91 95 100 106 115 125 132 136 137 137 138 138 137 137 139 141 145 149 153 156 158 160 161 163 164 166 168 171 174 178 181 184 188 193 197 200 206 211 216 224 233
6 9 11 14 16 18 19 22 24 25 26 26 27 29 31 33 35 37 38 38 39 40 40 41 42 43 45 48 51 52 54 56 57 59 61 64 68 73 78 83 87 90 93 95 97 101 105 109 113 116 119 122 124 126 127 129 131 134 137 139 142 145 148 150 153 155 158 162 165 167 170 174 178 181 186 189 191 195 200 205 211 217 224 233 242